Location: Dealu Mare
(46.0500°N, 22.8167°E)
Time: 21:38:41
(UTC+00:00)

USA 234 - Pass Details

Date: 15 January 2026
Orbit: 1102 x 1106 km, 123.0° (Epoch: 4 January)

Event Time Altitude Azimuth Distance (km) Brightness Sun altitude
Rises 05:08:22 0° 52° (NE) 3,933 6.6 -10.0°
Reaches altitude 10° 05:10:53 10° 55° (NE) 2,972 6.0 -9.6°
Maximum altitude 05:17:26 71° 139° (SE) 1,164 3.6 -8.6°
Drops below altitude 10° 05:23:57 10° 223° (SW) 2,957 5.3 -7.5°
Sets 05:26:27 0° 226° (SW) 3,912 5.9 -7.1°
